Location: �terpigny
(49.8910°N, 2.9249°E)
Time: 04:39:48
(UTC+00:00)

Cosmos 332 Rocket - Pass Details

Date: 31 May 2022
Orbit: 681 x 703 km, 74.0° (Epoch: 05 July)

Event Time Altitude Azimuth Distance (km) Brightness Sun altitude
Exits shadow 00:30:26 32° 210° (SSW) 1,167 4.4 -17.5°
Maximum altitude 00:32:40 81° 294° (WNW) 697 3.7 -17.5°
Drops below altitude 10° 00:37:29 10° 22° (NNE) 2,135 7.6 -17.3°
Sets 00:39:48 0° 24° (NNE) 3,057 8.8 -17.2°
